Location: Steinbach
(49.5170°N, 96.6830°W)
Time: 12:22:39
(UTC-05:00)

Daily predictions for brighter satellites

Satellite Brightness Start Highest point End
(mag) Time Altitude Azimuth Time Altitude Azimuth Time Altitude Azimuth
Cosmos 923 Rocket 4.4 19:37:25 10° SSW 19:42:40 71° WNW 19:48:00 10° NNE
NOAA 12 4.1 19:39:20 10° SSE 19:44:34 69° ENE 19:49:50 10° N
IDEFIX/ARIANE 42P 4.2 19:42:00 10° SSW 19:46:54 40° W 19:51:51 10° NNW
ERBS 4.2 19:44:23 10° WNW 19:47:17 23° N 19:50:11 10° NE
Cosmos 1371 Rocket 4.3 19:42:51 10° NNW 19:48:09 76° WSW 19:53:27 10° SSE
NOSS 3-2 (C) 4.5 19:43:52 10° SSE 19:48:41 25° ESE 19:53:48 10° ENE
CZ-4C R/B 2.3 19:43:54 10° SSW 19:49:14 63° SE 19:55:18 10° NE
Helios 1A 3.4 19:45:55 10° SE 19:49:52 43° ENE 19:53:52 10° N
ATLAS 5 CENTAUR R/B 3.3 19:49:57 10° SSE 19:52:53 16° ESE 19:55:55 10° ENE
Cosmos 1980 3.7 19:48:42 10° SSW 19:54:21 82° ESE 20:00:03 10° NNE
NOSS 0 Rocket 4.0 19:48:14 10° SSW 19:54:25 84° ESE 20:00:39 10° NNE
SAR-Lupe-1 4.3 19:52:51 10° S 19:56:25 76° WSW 20:00:00 10° NNW
CZ-2D R/B 4.5 19:53:36 10° ESE 19:56:46 24° ENE 19:59:57 10° N
Cosmos 1953 3.6 19:53:48 10° SE 19:56:47 20° E 19:59:45 10° NE
SL-16 R/B 2.6 19:54:27 10° S 19:59:44 41° ESE 20:05:02 10° NE
Aureole 2 Rocket 3.5 19:57:47 10° S 20:01:50 38° ESE 20:05:49 10° NE
Cosmos 1812 Rocket 4.1 19:59:58 10° SSW 20:04:16 63° WNW 20:08:37 10° N
Cosmos 1766 Rocket 3.8 20:00:04 10° N 20:04:20 47° ENE 20:08:33 10° SSE
Cosmos 2034 Rocket 4.4 19:59:32 10° SSE 20:05:16 39° E 20:11:05 10° NNE
Cosmos 1624 Rocket 4.5 20:00:56 10° NNW 20:06:08 66° WSW 20:11:16 10° S
USA 186 3.1 20:06:04 12° ENE 20:06:13 12° ENE 20:07:11 10° NE
Cosmos 1464 Rocket 4.1 20:02:20 10° SSE 20:08:22 53° E 20:14:22 10° NNE
Cosmos 1805 4.1 20:10:18 10° SSE 20:13:43 29° E 20:17:09 10° NNE
HJ-1C 3.3 20:11:03 10° SSE 20:14:25 84° ENE 20:17:48 10° NNW
Meteor 1-29 3.5 20:11:49 10° NNE 20:15:07 36° E 20:18:23 10° SSE
COSMOS 2455 3.8 20:10:00 10° WSW 20:15:50 49° NW 20:21:42 10° NNE
H-2A R/B 4.3 20:15:41 10° NE 20:15:55 10° NE 20:16:09 10° NE
H-2A R/B 3.4 20:12:49 10° SE 20:16:25 36° ENE 20:20:00 10° N
Meteor 1-28 Rocket 3.2 20:15:24 10° NNE 20:19:09 88° WNW 20:22:52 10° SSW
Meteor 1-22 Rocket 4.0 20:14:03 10° S 20:19:23 79° E 20:24:42 10° NNE
Cosmos 1378 3.4 20:16:42 10° NNW 20:20:26 70° W 20:24:08 10° S
Cosmos 2278 Rocket 4.1 20:15:35 10° NW 20:20:33 32° WSW 20:25:30 10° SSW
Cosmos 2219 Rocket 3.2 20:16:02 10° SW 20:21:30 50° NW 20:27:02 10° NNE
USA 215 3.4 20:16:54 10° ENE 20:23:16 52° SE 20:29:36 10° SSW
Cosmos 2297 4.4 20:18:57 10° NW 20:24:31 57° WSW 20:30:01 10° S
Cosmos 1346 3.7 20:22:47 10° N 20:25:33 33° ENE 20:27:00 21° ESE
Cosmos 482 Debris 3.5 20:23:54 10° W 20:26:00 57° N 20:28:01 18° ENE
Meteor 1-24 Rocket 4.4 20:20:38 10° NNW 20:26:16 59° W 20:31:40 10° S
Cosmos 1076 Rocket 3.5 20:22:13 10° N 20:26:34 88° W 20:30:55 10° S
METEOR-M 4.4 20:22:16 10° S 20:27:37 72° WSW 20:33:00 10° NNW
SJ-6B 4.4 20:25:33 10° SSW 20:29:17 39° W 20:33:07 10° NNW
Cosmos 1544 4.0 20:26:04 10° SSE 20:29:18 28° E 20:32:34 10° NNE
FENGYUN 3A 3.6 20:28:41 10° SSE 20:34:01 72° ENE 20:39:25 10° N
Cosmos 1470 4.1 20:34:27 21° E 20:34:27 21° E 20:37:11 10° NE
Helios 1B rocket 2.3 20:30:08 10° NNE 20:34:16 74° ESE 20:38:22 10° S
Cosmos-2242 3.3 20:30:32 10° SSE 20:34:42 46° E 20:38:56 10° NNE
Cosmos 1452 Rocket 3.5 20:30:08 10° NNW 20:35:26 88° WSW 20:40:42 10° SSE
Cosmos 1607 4.3 20:29:49 10° SW 20:35:58 68° NW 20:42:08 10° NE
ERS-1 Rocket 3.9 20:34:40 20° ESE 20:37:10 30° ENE 20:41:30 10° N
Cosmos 1758 3.4 20:33:23 10° S 20:37:22 54° E 20:41:24 10° NNE
Cosmos 1500 Rocket 4.0 20:34:53 10° N 20:39:04 40° ENE 20:41:42 20° SE
Cosmos 1408 Rocket 3.7 20:35:42 10° NNW 20:40:05 74° W 20:44:24 10° S
Cosmos 2369 Rocket 2.8 20:35:11 10° NNW 20:40:29 39° NE 20:43:36 22° ESE
SeaSat 1 3.2 20:36:23 10° NE 20:40:39 29° ESE 20:44:55 10° SSE
Cosmos 1842 Rocket 4.4 20:39:26 21° SE 20:41:11 28° E 20:44:53 10° NNE
Cosmos 192 4.3 20:37:23 10° SSW 20:42:18 68° ESE 20:47:15 10° NNE
Cosmos 1603 4.2 20:41:35 10° S 20:46:49 38° ESE 20:52:06 10° NE
ATLAS 3B R/B 3.8 20:39:34 10° WSW 20:46:51 48° NW 20:53:53 10° NE
Resurs 01 Rocket 2.7 20:44:10 10° S 20:48:28 47° W 20:52:48 10° NNW
Cosmos 2151 3.8 20:47:08 10° N 20:50:50 29° ENE 20:51:24 28° E
Cosmos 1943 Rocket 3.4 20:47:04 10° NNW 20:51:47 26° NE 20:53:53 21° ENE
CZ-4B DEB 3.1 20:48:52 10° S 20:52:08 68° W 20:55:25 10° NNW
Resurs 1-3 4.3 20:48:01 10° S 20:52:19 54° W 20:56:40 10° NNW
Cosmos 2333 Rocket 3.7 20:51:43 10° WSW 20:57:06 38° NW 21:02:29 10° NNE
ATLAS CENTAUR R/B 4.2 20:56:40 10° W 20:58:46 14° WSW 21:00:46 10° SW
Cosmos 1420 Rocket 4.0 20:54:09 10° NNW 20:59:29 86° ENE 21:03:18 19° SSE
Cosmos 1939 Rocket 3.5 21:00:35 34° E 21:00:57 34° ENE 21:04:36 10° N
NOSS 3-2 (A) 3.4 20:55:35 10° SW 21:01:44 79° SE 21:08:33 10° NE
Cosmos 1674 2.6 21:01:54 10° N 21:05:48 75° E 21:07:21 35° SSE
Meteor 1-21 Rocket 4.5 21:00:38 10° NNW 21:06:12 69° W 21:11:41 10° S
Cosmos 1743 Rocket 3.6 21:02:24 10° NNW 21:06:54 80° W 21:10:41 14° S
USA 238 DEB 4.3 21:00:10 10° WSW 21:07:07 58° NW 21:14:05 10° NE
USA 238 4.3 21:00:15 10° WSW 21:07:13 59° NW 21:14:11 10° NE
Cosmos 2058 3.9 21:05:47 10° N 21:08:56 29° ENE 21:08:56 29° ENE
Cosmos 1328 4.2 21:05:42 10° N 21:09:30 42° ENE 21:09:30 42° ENE
Cosmos 1655 Rocket 4.3 21:04:29 10° N 21:10:27 44° ENE 21:12:38 32° ESE
ALOS 3.0 21:06:41 10° S 21:11:14 53° W 21:15:50 10° NNW
CZ-4 DEB 4.0 21:14:02 30° NNE 21:14:02 30° NNE 21:15:59 10° N
GP-B 3.0 21:10:49 10° N 21:15:15 61° E 21:16:40 40° SSE
Nadezhda 4 Rocket 4.2 21:09:01 10° NNW 21:15:20 75° W 21:21:32 10° S
Cosmos 1269 Rocket 4.0 21:11:12 10° S 21:16:21 56° ESE 21:21:32 10° NNE
Cosmos 1092 Rocket 3.9 21:14:07 10° N 21:20:24 90° WSW 21:25:37 15° S
Cosmos 1048 Rocket 4.0 21:17:56 10° S 21:23:05 55° ESE 21:28:13 10° NNE
H-2A R/B 3.9 21:24:25 15° NE 21:24:25 15° NE 21:26:50 10° NNE
SL-14 R/B 4.3 21:20:15 10° N 21:23:10 33° NE 21:23:10 33° NE
ERBS 3.6 21:21:37 10° NW 21:24:49 32° NNE 21:24:52 32° NNE
BREEZE-M DEB (TANK) 4.0 21:13:24 10° WSW 21:25:08 75° SSE 21:26:54 41° E
Cosmos 2237 Rocket 4.1 21:20:33 10° WSW 21:25:30 30° NW 21:30:28 10° NNE
ASTEX 1 3.7 21:24:16 10° N 21:29:10 66° W 21:34:01 10° SSW
Envisat 2.9 21:30:15 50° SE 21:31:30 70° ENE 21:36:35 10° N
Cosmos 1953 3.7 21:29:15 10° SW 21:33:00 38° WNW 21:36:45 10° N
Sich 1 4.5 21:30:10 10° N 21:32:45 25° NE 21:32:45 25° NE
ATLAS 5 CENTAUR R/B 1.8 21:31:48 10° SW 21:36:42 90° SE 21:41:49 11° NE
USA 186 4.2 21:37:53 16° WNW 21:37:53 16° WNW 21:38:51 10° NW
Cosmos 2026 Rocket 3.8 21:31:02 10° N 21:37:08 72° E 21:39:13 43° SSE
ATLAS CENTAUR R/B 4.4 21:30:34 10° SW 21:37:22 90° SSE 22:01:41 10° ENE
CZ-4C R/B 3.6 21:32:50 10° W 21:38:09 39° NNW 21:44:10 10° NE
NOSS 3-2 (C) 3.6 21:32:35 10° SW 21:38:48 80° NW 21:45:43 10° NE
Cosmos 1634 Rocket 3.8 21:33:47 15° S 21:39:06 75° E 21:45:20 10° NNE
YAOGAN 6 4.5 21:43:56 22° NNE 21:43:56 22° NNE 21:45:32 10° N
Terra 3.9 21:43:33 14° NE 21:43:33 14° NE 21:45:05 10° NNE
SL-16 R/B 3.5 21:38:30 10° WSW 21:43:52 41° NW 21:49:16 10° NNE
UNK 4.5 21:22:31 10° W 21:44:57 86° SSW 21:47:08 47° ESE
SPOT 1/Viking Rocket 4.3 21:46:55 36° NE 21:46:55 36° NE 21:51:04 10° N
YAOGAN 11 4.2 21:46:59 63° SSW 21:47:27 70° WSW 21:51:45 10° NNW
Cosmos 1805 Rocket 4.1 21:45:47 10° N 21:49:16 49° NNE 21:49:16 49° NNE
H-2A R/B 2.6 21:51:47 52° NNE 21:51:47 52° NNE 21:55:26 10° N
MetOp-A 4.0 21:58:37 69° ENE 21:58:37 69° ENE 22:03:58 10° N
Cosmos 724 4.4 21:54:47 10° SW 22:00:46 79° NW 22:06:57 10° NE
ARGOS 3.6 22:01:45 46° NE 22:01:45 46° NE 22:06:22 10° N
Cosmos 1656 Rocket 4.4 21:59:41 10° NNW 22:04:16 37° NE 22:04:16 37° NE
SPOT 5 3.3 22:05:56 47° N 22:05:56 47° N 22:09:06 10° NNW
Cosmos 1633 Rocket 4.4 22:01:24 10° N 22:03:53 31° NNE 22:03:53 31° NNE
USA 215 3.4 22:01:45 20° NE 22:06:27 69° NNW 22:12:56 10° WSW
Cosmos 1470 4.2 22:09:48 35° W 22:10:09 36° WNW 22:13:47 10° N
Cosmos 1110 Rocket 4.0 22:05:56 10° NNW 22:11:14 75° WSW 22:11:16 75° WSW
NOAA 11 4.5 22:13:41 55° NNE 22:13:41 55° NNE 22:18:17 10° N
ERS-1 Rocket 3.9 22:14:41 38° SW 22:15:48 44° W 22:20:37 10° NNW
Cosmos 2221 4.3 22:20:01 24° N 22:20:01 24° N 22:21:49 10° N
SeaSat 1 3.2 22:13:36 10° NNE 22:18:25 52° NW 22:23:11 10° SW
BREEZE-M DEB (TANK) 3.8 22:10:29 10° W 22:18:07 44° SW 22:18:07 44° SW
SL-24 R/B - RUBIN 2 4.4 22:17:17 10° NW 22:24:03 80° SW 22:24:21 78° SSW
Cosmos 2369 Rocket 3.0 22:19:16 10° NW 22:24:35 43° WSW 22:25:24 40° SW
Meteor 2-1 Rocket 4.4 22:27:56 70° N 22:27:56 70° N 22:33:07 10° NNE
Cosmos 1943 4.3 22:31:05 34° NNE 22:31:05 34° NNE 22:34:11 10° NNE
Meteor 2-20 Rocket 4.4 22:23:08 10° N 22:29:05 83° N 22:29:05 83° N
Meteor 2-20 4.4 22:24:13 10° NNW 22:30:23 76° W 22:30:39 74° WSW
Cosmos 1943 Rocket 2.5 22:30:28 10° NNW 22:35:24 64° WNW 22:35:24 64° WNW
Cosmos 2180 Rocket 4.5 22:39:25 75° NNW 22:39:25 75° NNW 22:45:05 10° N
H-2A R/B 3.5 23:05:04 32° N 23:05:04 32° N 23:07:46 10° NNW
Terra 4.0 23:22:27 23° NNW 23:22:27 23° NNW 23:24:14 10° NNW
ATLAS 5 CENTAUR R/B 3.8 23:17:43 10° W 23:22:07 28° NNW 23:23:28 25° N
CZ-4C R/B 4.4 23:23:35 10° NW 23:28:29 24° N 23:33:45 10° NE
CENTAUR R/B 3.7 23:34:48 39° NNE 23:34:48 39° NNE 23:39:27 10° NE
USA 215 4.0 23:49:07 47° N 23:49:07 47° N 23:55:12 10° WNW
